Weather History for PHOG - August, 2014

Change the Weather History Date:

Wednesday, August 13, 2014

  Actual Average Record
Temperature  
Mean Temperature 81 °F 80 °F  
Max Temperature 90 °F 88 °F 92 °F (1977)
Min Temperature 71 °F 72 °F 63 °F (1949)
Degree Days  
Heating Degree Days 0 0  
Month to date heating degree days 0 0  
Since 1 June heating degree days 0 0  
Since 1 July heating degree days 0 0  
Cooling Degree Days 16 15  
Month to date cooling degree days 213 195  
Year to date cooling degree days 2607 2281  
Since 1 June cooling degree days 1111 1022  
Growing Degree Days 30 (Base 50)    
Moisture  
Dew Point 66 °F    
Average Humidity 66    
Maximum Humidity 84    
Minimum Humidity 47    
Precipitation  
Precipitation 0.00 in 0.02 in 0.11 in (1969)
Month to date precipitation 0.29 0.24  
Year to date precipitation 15.47 10.44  
Snow  
Snow 0.00 in - - ()
Month to date snowfall 0.0  
Since 1 June snowfall 0.0  
Since 1 July snowfall 0.0  
Snow Depth 0.00 in    
Sea Level Pressure  
Sea Level Pressure 29.98 in    
Wind  
Wind Speed 9 mph (ENE)    
Max Wind Speed 26 mph    
Max Gust Speed 33 mph    
Visibility 10 miles    
Events      
T = Trace of Precipitation, MM = Missing Value Source: NWS Daily Summary

Daily Weather History Graph

Daily Weather History Graph

Search for Another Location

Airport or City:

Trip Planner

Search our weather history database for the weather conditions in past years. The results will help you decide how hot, cold, wet, or windy it might be!

Date:

Astronomy

Aug. 13, 2014 Rise Set
Actual Time 6:04 AM HST 6:56 PM HST
Civil Twilight 5:40 AM HST 7:19 PM HST
Nautical Twilight 5:13 AM HST 7:46 PM HST
Astronomical Twilight 4:45 AM HST 8:14 PM HST
Moon 9:26 PM HST (8/13) 9:11 AM HST (8/13)
Length of Visible Light 13h 38m
Length of Day
12h 52m
Waning Gibbous, 86% of the Moon is Illuminated
Aug 13
Waning Gibbous
Aug 17
Last Quarter
Aug 25
New
Sep 2
First Quarter
Sep 8
Full

Hourly Weather History & Observations

Time (HST) Temp. Heat Index Dew Point Humidity Pressure Visibility Wind Dir Wind Speed Gust Speed Precip Events Conditions
12:54 AM 75.9 °F - 66.9 °F 74% 30.01 in 10.0 mi NE 6.9 mph - N/A   Clear
1:54 AM 75.0 °F - 66.0 °F 73% 29.99 in 10.0 mi ENE 8.1 mph - N/A   Partly Cloudy
2:54 AM 71.1 °F - 66.0 °F 84% 29.98 in 10.0 mi Calm Calm - N/A   Clear
3:54 AM 71.1 °F - 66.0 °F 84% 29.99 in 10.0 mi ESE 3.5 mph - N/A   Clear
4:54 AM 73.0 °F - 66.9 °F 81% 29.99 in 10.0 mi Calm Calm - N/A   Scattered Clouds
5:54 AM 73.9 °F - 66.9 °F 79% 29.99 in 10.0 mi ENE 5.8 mph - N/A   Partly Cloudy
6:54 AM 72.0 °F - 66.9 °F 84% 30.00 in 10.0 mi Variable 4.6 mph - N/A   Partly Cloudy
7:54 AM 79.0 °F - 66.0 °F 64% 30.00 in 10.0 mi Calm Calm - N/A   Partly Cloudy
8:54 AM 82.9 °F 85.0 °F 66.0 °F 56% 30.01 in 10.0 mi Variable 4.6 mph - N/A   Partly Cloudy
9:54 AM 86.0 °F 87.6 °F 64.9 °F 49% 30.01 in 10.0 mi Variable 3.5 mph 19.6 mph N/A   Partly Cloudy
10:54 AM 89.1 °F 91.3 °F 66.0 °F 46% 30.00 in 10.0 mi ENE 16.1 mph 23.0 mph N/A   Scattered Clouds
11:54 AM 89.1 °F 92.9 °F 68.0 °F 50% 29.99 in 10.0 mi NE 19.6 mph 25.3 mph N/A   Scattered Clouds
12:54 PM 89.1 °F 92.9 °F 68.0 °F 50% 29.98 in 10.0 mi ENE 21.9 mph 29.9 mph N/A   Scattered Clouds
1:54 PM 89.1 °F 92.1 °F 66.9 °F 48% 29.96 in 10.0 mi ENE 19.6 mph 29.9 mph N/A   Scattered Clouds
2:54 PM 90.0 °F 92.8 °F 66.9 °F 46% 29.94 in 10.0 mi ENE 21.9 mph 32.2 mph N/A   Scattered Clouds
3:54 PM 86.0 °F 88.8 °F 66.9 °F 53% 29.93 in 10.0 mi ENE 19.6 mph 32.2 mph N/A   Scattered Clouds
4:54 PM 84.9 °F 87.1 °F 66.0 °F 53% 29.92 in 10.0 mi East 20.7 mph 29.9 mph N/A   Scattered Clouds
7:54 PM 79.0 °F - 66.0 °F 64% 29.97 in 10.0 mi ENE 11.5 mph 17.3 mph N/A   Mostly Cloudy
8:54 PM 78.1 °F - 66.0 °F 66% 29.99 in 10.0 mi East 8.1 mph - N/A   Clear
9:54 PM 78.1 °F - 66.0 °F 66% 30.01 in 10.0 mi ENE 6.9 mph 16.1 mph N/A   Partly Cloudy
10:54 PM 75.9 °F - 64.9 °F 69% 30.01 in 10.0 mi East 4.6 mph - N/A   Scattered Clouds
11:54 PM 75.0 °F - 66.9 °F 76% 30.01 in 10.0 mi East 3.5 mph - N/A   Clear